Zurück zum Katalog

DELTA 1 DEB

AktivPO
NORAD 27577·DEBRIS·🇺🇸 United States

Gestartet Jun 12, 1975 von Vandenberg Space Force Base

Loading…

Nächste Überflüge (nächste 24 Stunden)

TLE

AktuellSource: Space-Track

Epoche: Sep 14, 2026, 13:00 UTC

1 27577U 75052LE  26257.54213663  .00000355  00000-0  62992-3 0  9993
2 27577  99.0829 115.5288 0075145 163.8699 226.0858 13.47660556549597

Verfolge DELTA 1 DEB in Echtzeit mit AllMySat

Download on the App Store